Wind_Speed
21 20 21 21 21 22 21 20 19 18 18 17 17 17 16 16 17 17 17 16 16 16 15 15 14 13 13 12 12 11 10 10 10 10 10 10 10 10 11 9 9 9 8 8 8 8 7 7 6
22 22 23 23 23 23 21 21 20 19 19 18 18 18 18 18 18 18 17 17 17 17 17 16 15 15 14 13 13 13 12 12 12 12 12 12 12 12 12 11 11 10 10 10 9 9 8 8 8
23 23 24 24 25 24 23 22 21 21 20 20 19 19 19 19 18 18 18 18 18 18 18 17 17 16 16 15 14 14 14 14 14 14 14 14 14 14 14 13 13 12 11 11 11 10 10 10 10
23 24 25 26 25 24 24 24 23 22 22 22 21 21 21 20 20 20 19 19 19 19 19 18 18 17 17 17 17 16 16 16 15 15 15 15 15 16 15 15 14 14 14 13 13 12 11 11 11
25 25 26 26 26 25 25 25 24 23 23 23 23 22 22 22 22 21 20 20 20 20 20 19 19 19 19 19 19 19 18 18 18 17 16 16 17 18 17 17 16 16 16 15 15 14 13 13 13
26 26 27 27 26 26 26 26 25 24 24 24 23 23 22 23 23 22 22 21 21 21 20 20 20 20 20 20 20 20 20 20 20 19 19 18 19 19 19 19 18 18 17 17 17 16 15 15 15
26 26 27 27 27 27 27 27 26 25 25 25 24 24 23 23 23 23 23 23 23 22 22 22 21 21 21 21 21 21 22 22 22 22 21 20 21 21 21 20 20 19 19 19 19 18 17 17 17
26 27 27 27 27 27 27 27 27 26 26 26 26 25 24 24 24 24 24 23 23 24 23 23 23 23 23 23 23 23 23 23 23 23 23 23 23 23 23 22 22 21 21 21 21 20 19 19 18
27 28 28 28 28 27 27 27 27 27 27 27 27 26 25 25 25 25 25 24 24 24 24 23 23 24 24 24 24 24 24 24 24 24 24 24 24 24 25 24 24 23 23 22 22 22 21 21 20
28 29 29 28 29 28 29 28 28 27 27 27 27 26 26 26 26 26 26 26 25 25 25 25 25 25 26 26 25 25 26 26 26 26 26 26 26 26 26 26 26 25 25 24 23 23 23 22 22
29 29 29 29 30 30 30 29 29 28 28 27 27 27 27 27 27 27 27 27 27 27 27 27 26 26 27 27 27 27 27 27 27 27 27 27 27 27 28 28 28 27 27 26 26 26 25 24 24
29 29 29 30 31 31 31 30 30 30 29 28 28 28 28 29 28 28 28 28 28 28 29 29 28 28 29 29 29 29 29 29 29 29 29 29 28 29 29 30 30 29 29 28 28 28 27 26 26
29 29 30 31 31 32 32 32 31 31 30 30 29 29 29 29 29 29 29 29 29 29 29 30 30 30 30 30 30 30 30 31 31 31 31 31 30 31 31 32 32 32 31 31 30 30 29 29 29
30 30 30 30 31 31 32 33 33 31 32 31 31 30 30 31 31 30 30 30 30 30 30 31 31 31 32 32 32 32 32 32 32 32 32 32 33 33 33 34 34 33 33 33 33 32 32 31 31
30 30 31 31 31 32 33 34 34 33 33 33 32 32 31 31 32 31 32 32 32 32 31 32 33 33 33 34 33 34 34 34 34 34 34 35 35 35 35 36 36 36 35 35 35 35 35 34 34
30 31 31 31 32 33 34 35 34 35 35 34 34 33 33 33 32 32 33 33 34 34 33 34 34 34 34 35 35 35 35 35 35 35 36 36 36 37 37 37 37 37 37 37 37 37 37 36 36
31 31 32 32 33 34 35 35 35 36 36 36 36 34 34 34 34 34 34 34 34 35 35 35 35 35 35 36 36 37 37 37 37 38 38 38 38 38 38 38 38 39 38 39 39 39 38 38 38
30 31 32 33 34 34 35 35 35 36 36 36 36 35 35 34 34 34 34 34 34 35 35 36 36 36 35 36 37 37 37 37 37 38 39 39 40 39 39 40 40 40 40 40 40 40 40 39 39
30 31 32 33 34 35 35 34 35 35 35 36 36 36 36 35 35 34 34 34 35 35 36 36 36 36 36 37 37 37 37 37 37 37 38 39 40 40 40 40 41 41 41 41 41 42 41 41 41
30 31 32 33 33 35 35 35 35 35 36 36 36 36 36 37 37 36 36 36 36 36 37 36 36 37 37 37 37 37 37 37 37 37 38 38 39 40 41 41 41 41 41 41 41 42 43 42 42
28 30 30 31 32 33 35 36 35 35 36 36 36 37 37 37 37 37 37 37 37 38 37 36 37 37 38 38 38 38 38 39 38 38 38 38 39 39 39 40 40 40 41 41 42 41 42 42 43
28 28 30 30 31 32 32 35 34 34 35 36 36 36 36 37 37 37 37 37 38 38 38 38 38 38 38 39 39 38 39 39 39 39 39 38 38 39 40 40 40 40 41 41 41 41 41 42 42
28 28 29 30 31 32 31 33 33 33 33 33 34 35 35 35 36 37 36 37 38 38 38 38 38 38 38 39 39 39 39 39 38 38 38 39 39 39 40 41 40 40 40 41 42 42 41 42 42
28 28 29 30 31 32 30 32 33 31 31 32 33 34 35 35 36 36 36 36 37 37 38 38 38 38 39 39 39 39 39 39 39 38 38 38 38 39 39 40 40 40 40 41 42 42 43 43 43
28 28 29 30 30 31 30 33 32 31 30 31 32 33 34 34 35 35 36 36 37 37 38 38 39 39 39 39 39 39 40 39 39 39 39 38 38 39 39 39 40 40 40 41 42 42 42 42 43
27 28 29 30 31 30 30 31 30 30 31 30 30 31 32 33 34 34 35 36 36 37 37 38 39 39 39 39 39 39 39 39 39 39 39 39 39 39 39 39 38 39 39 40 41 42 43 43 43
28 29 29 30 31 31 31 30 29 29 31 31 30 31 31 32 32 33 34 34 36 36 37 37 38 38 38 39 39 39 39 40 40 39 38 38 38 38 38 39 39 39 39 40 41 42 43 43 44
28 28 29 30 31 31 31 30 28 28 29 30 30 31 31 31 32 33 33 34 35 35 36 37 37 37 38 38 39 39 39 39 39 39 39 38 38 38 39 39 39 40 41 41 42 42 42 43 44
27 28 29 30 31 31 32 30 28 27 29 30 31 31 31 31 31 33 34 34 34 34 35 36 37 37 38 38 39 39 39 39 39 39 39 39 39 38 38 39 40 40 41 41 41 41 41 42 43
28 28 28 29 30 31 31 30 28 28 29 29 30 31 31 31 31 32 33 33 34 34 34 35 36 37 37 38 38 39 39 39 39 39 39 39 39 39 38 39 39 41 42 42 42 42 42 42 42
Wind_Direction
247 246 245 244 244 244 245 246 246 246 247 246 246 247 247 248 248 248 247 246 246 245 242 241 239 236 235 237 239 240 239 237 235 233 231 232 230 230 229 230 231 231 229 230 233 235 239 238 240
248 246 246 245 245 245 245 246 247 247 248 247 247 248 247 248 248 248 248 246 246 245 244 242 240 239 239 240 242 243 243 241 242 240 239 238 236 235 234 236 236 236 234 234 236 238 240 242 243
248 247 246 246 246 247 247 246 248 248 248 248 248 249 250 250 250 249 248 247 246 245 244 242 242 241 242 243 244 246 246 245 246 245 244 242 240 238 238 238 238 240 238 237 238 240 242 243 246
247 245 246 246 248 248 247 247 246 246 247 249 250 251 252 251 250 249 249 248 247 246 245 243 243 243 243 245 247 249 250 250 248 246 247 245 241 239 241 241 241 242 242 240 240 242 245 246 248
247 246 246 245 247 247 246 246 246 245 247 249 251 250 251 250 250 249 249 250 249 248 247 245 245 245 245 247 249 251 254 255 252 250 250 248 244 241 241 244 243 244 245 244 243 244 247 248 249
248 246 246 245 245 246 246 246 245 245 247 249 250 250 250 250 249 249 249 249 249 247 247 246 246 248 248 250 251 254 256 256 256 254 252 249 246 244 243 244 246 245 246 247 246 246 247 249 251
247 247 246 245 244 244 245 245 245 245 246 248 250 251 250 249 249 248 248 248 247 247 247 245 246 249 250 251 253 255 257 257 257 256 254 253 249 245 245 245 247 247 247 248 249 249 251 252 253
249 248 246 245 243 243 243 244 244 245 246 248 249 250 250 248 248 248 248 249 248 248 248 248 248 250 251 252 254 256 258 258 258 257 255 253 251 247 246 246 247 248 247 247 250 250 252 253 254
251 249 247 246 244 243 243 243 244 244 246 247 248 249 248 248 249 249 249 250 250 250 251 252 252 252 252 254 254 256 258 259 259 257 256 254 253 250 248 247 247 248 249 249 250 250 251 253 254
251 249 248 246 244 244 243 243 243 244 245 246 247 248 248 248 250 250 250 249 249 251 253 254 255 254 254 255 256 257 259 259 259 258 257 256 253 251 250 248 248 248 249 249 250 251 252 253 254
250 248 246 245 244 243 243 243 243 244 245 245 247 248 248 249 250 251 250 249 250 252 253 254 255 255 256 257 257 257 258 259 259 258 258 257 255 252 250 249 248 248 249 250 251 252 253 254 255
252 248 246 245 244 244 244 243 244 243 244 245 248 249 249 249 250 251 250 250 251 251 252 253 254 256 257 258 259 258 258 259 260 258 257 257 256 254 252 250 249 249 249 250 251 252 253 254 257
252 249 247 246 245 245 244 243 243 244 245 246 249 250 250 251 251 252 252 253 253 252 253 254 254 255 255 257 258 258 258 259 260 258 257 257 257 256 254 251 249 250 250 250 250 253 254 255 257
251 248 247 246 246 245 245 244 243 244 246 247 248 250 251 251 251 252 253 254 254 254 254 255 255 255 255 256 257 258 259 259 259 258 258 258 258 256 254 252 251 251 251 251 251 253 254 256 257
250 249 247 246 247 247 247 245 245 244 246 247 248 249 251 251 251 253 253 253 255 255 255 256 257 257 257 257 257 258 259 260 259 258 258 259 258 256 254 253 252 251 252 252 252 253 255 257 258
249 249 248 248 248 249 249 248 247 247 248 248 249 250 250 251 251 252 253 254 255 256 256 256 258 258 258 258 259 259 259 260 260 259 259 259 259 257 255 253 252 252 253 253 253 254 255 257 258
251 251 251 250 249 250 250 250 248 248 248 249 250 251 252 252 252 252 253 254 255 256 257 257 258 259 259 260 261 260 260 262 262 260 259 259 258 257 256 254 253 253 253 253 254 255 255 257 258
256 254 253 252 251 251 251 250 248 247 248 249 250 250 252 252 252 253 253 254 255 256 256 257 258 259 260 262 262 261 261 262 263 262 260 259 258 257 255 255 255 253 253 253 254 255 255 256 257
257 255 254 254 252 252 252 250 249 248 248 249 250 251 251 252 252 252 253 254 255 256 257 259 259 259 260 261 263 262 262 262 263 263 261 259 257 255 255 255 255 254 253 253 254 255 255 257 257
260 257 256 255 253 252 251 250 250 250 249 250 251 252 253 253 254 254 255 256 257 258 259 260 260 260 261 262 262 263 262 263 263 262 260 259 257 255 254 255 255 255 254 253 254 255 255 256 256
262 259 257 257 254 253 252 250 250 250 251 251 252 253 254 255 255 256 256 257 257 258 259 260 260 261 262 262 262 263 262 262 261 260 259 259 257 255 254 254 255 256 255 254 254 254 255 255 257
264 262 259 258 257 256 254 254 251 251 251 252 252 253 254 255 256 257 257 257 258 259 259 259 259 260 261 262 262 262 263 262 260 259 259 258 257 255 255 255 255 256 256 254 254 255 256 257 258
267 264 261 259 259 257 255 255 252 252 251 252 252 253 254 255 256 256 257 258 258 260 260 259 259 261 262 263 263 262 262 262 260 259 259 259 258 256 255 254 255 255 255 254 254 255 256 257 257
266 264 262 260 259 259 256 256 255 253 252 252 253 254 255 256 257 258 258 258 259 260 261 261 260 261 263 263 263 263 262 262 260 259 259 259 258 257 256 256 256 256 255 254 254 254 255 256 257
264 263 263 262 261 261 259 259 258 255 253 254 255 256 256 257 258 259 259 259 260 260 260 261 261 261 262 262 262 263 262 261 260 260 260 259 259 258 257 257 257 256 255 254 254 254 255 256 259
263 260 260 262 262 264 262 262 260 257 255 255 255 256 258 259 260 260 261 260 260 261 262 262 262 262 261 261 261 262 262 260 261 261 261 260 260 259 258 257 257 256 256 256 256 257 256 258 260
262 259 259 261 262 263 263 262 260 258 256 256 256 257 259 261 261 261 262 262 261 262 262 263 263 263 262 261 260 261 260 260 260 260 260 259 258 258 258 257 257 257 257 258 257 259 260 261 261
261 259 257 257 260 263 265 263 261 260 257 258 259 259 260 263 263 263 263 263 263 264 263 263 263 263 262 261 260 261 260 259 258 258 258 257 258 259 258 258 258 257 257 258 260 261 262 262 262
260 259 257 258 259 262 264 265 264 263 260 260 261 260 261 263 264 264 264 264 265 265 264 264 264 263 262 261 261 260 260 260 258 257 257 258 259 259 259 259 259 259 259 259 260 261 262 263 264
260 258 258 259 260 260 263 264 263 264 263 262 263 263 264 264 264 264 264 265 265 265 265 264 265 264 263 262 260 261 261 260 259 258 257 257 258 258 259 259 259 259 260 260 261 262 264 265 266
Height
5825 5826 5827 5829 5831 5831 5832 5833 5834 5835 5835 5836 5837 5837 5838 5839 5841 5843 5842 5842 5843 5843 5844 5845 5846 5847 5848 5849 5849 5850 5851 5851 5851 5852 5852 5853 5853 5853 5854 5854 5854 5855 5855 5855 5856 5856 5856 5856 5856
5820 5822 5824 5825 5826 5827 5829 5829 5830 5831 5832 5833 5833 5834 5835 5835 5836 5837 5837 5838 5839 5840 5841 5842 5843 5844 5845 5846 5847 5848 5848 5849 5849 5850 5850 5850 5851 5851 5852 5852 5853 5853 5853 5854 5854 5854 5855 5855 5855
5816 5817 5819 5820 5821 5823 5825 5825 5826 5827 5828 5829 5829 5830 5831 5832 5832 5833 5834 5835 5836 5837 5838 5839 5840 5842 5842 5844 5844 5845 5846 5846 5847 5847 5847 5847 5848 5848 5849 5850 5850 5851 5851 5852 5852 5853 5853 5853 5853
5811 5812 5814 5815 5816 5818 5820 5821 5822 5823 5823 5824 5825 5826 5827 5828 5828 5829 5830 5831 5832 5833 5834 5836 5837 5838 5839 5840 5841 5842 5842 5843 5843 5843 5844 5844 5845 5845 5846 5847 5848 5848 5849 5849 5850 5851 5851 5851 5851
5805 5806 5808 5809 5811 5813 5815 5816 5817 5818 5819 5820 5821 5821 5822 5823 5823 5824 5826 5827 5828 5829 5830 5832 5833 5834 5836 5837 5837 5838 5839 5839 5839 5839 5840 5840 5841 5842 5842 5843 5844 5845 5846 5846 5847 5848 5848 5849 5849
5800 5801 5802 5804 5806 5808 5809 5811 5812 5813 5814 5815 5816 5816 5817 5818 5819 5820 5821 5822 5823 5824 5826 5827 5829 5830 5832 5833 5833 5834 5835 5835 5835 5835 5835 5836 5836 5837 5838 5839 5840 5841 5842 5843 5844 5845 5845 5846 5846
5794 5795 5796 5799 5801 5802 5804 5805 5807 5808 5809 5810 5811 5812 5812 5813 5814 5815 5816 5818 5819 5820 5821 5823 5824 5826 5827 5828 5829 5830 5830 5830 5830 5830 5831 5831 5832 5833 5834 5835 5836 5837 5838 5839 5840 5841 5842 5842 5843
5787 5789 5790 5793 5795 5797 5798 5799 5801 5803 5804 5805 5806 5807 5808 5809 5809 5810 5811 5813 5814 5815 5817 5818 5820 5821 5822 5823 5824 5825 5825 5825 5825 5825 5826 5826 5827 5828 5829 5830 5831 5833 5834 5835 5836 5837 5838 5838 5839
5780 5783 5784 5787 5789 5791 5792 5793 5795 5797 5798 5799 5800 5801 5802 5803 5804 5805 5807 5808 5809 5811 5812 5813 5815 5816 5817 5818 5819 5819 5820 5820 5820 5820 5820 5821 5821 5823 5824 5825 5827 5828 5829 5830 5832 5832 5833 5834 5835
5774 5776 5779 5781 5783 5785 5786 5788 5789 5791 5792 5794 5794 5796 5797 5798 5799 5800 5801 5802 5804 5806 5807 5808 5809 5811 5812 5813 5813 5814 5814 5814 5814 5814 5815 5815 5816 5817 5818 5820 5821 5823 5824 5825 5827 5827 5828 5829 5830
5767 5770 5772 5774 5775 5778 5779 5781 5783 5785 5787 5788 5789 5790 5791 5792 5793 5794 5795 5797 5798 5800 5801 5803 5804 5805 5806 5807 5807 5808 5808 5808 5808 5808 5809 5809 5810 5811 5812 5814 5815 5817 5819 5820 5821 5822 5823 5824 5825
5761 5763 5765 5767 5768 5770 5772 5774 5776 5778 5780 5781 5783 5783 5785 5786 5787 5788 5789 5791 5792 5793 5795 5796 5798 5799 5800 5800 5801 5801 5801 5802 5802 5802 5803 5803 5804 5805 5806 5808 5809 5811 5813 5814 5815 5816 5817 5818 5819
5754 5756 5757 5759 5761 5763 5765 5767 5769 5771 5773 5774 5775 5777 5778 5779 5781 5782 5783 5784 5786 5787 5788 5789 5791 5792 5793 5793 5794 5794 5794 5795 5795 5795 5796 5797 5798 5799 5800 5801 5803 5804 5806 5808 5809 5810 5811 5812 5813
5747 5749 5750 5752 5754 5756 5758 5760 5762 5765 5765 5767 5769 5770 5771 5773 5774 5775 5776 5778 5779 5780 5781 5782 5783 5784 5785 5786 5786 5787 5787 5788 5788 5788 5789 5790 5791 5792 5793 5794 5796 5797 5799 5801 5802 5804 5805 5806 5807
5740 5741 5743 5745 5746 5748 5750 5753 5755 5757 5757 5759 5761 5763 5764 5765 5767 5768 5769 5770 5771 5772 5773 5775 5776 5777 5777 5778 5778 5779 5779 5780 5781 5781 5782 5783 5783 5784 5786 5787 5788 5790 5792 5793 5795 5796 5797 5798 5799
5732 5734 5736 5738 5739 5741 5743 5745 5747 5748 5749 5751 5753 5754 5756 5758 5759 5760 5761 5762 5764 5765 5766 5767 5768 5769 5769 5770 5770 5771 5771 5772 5773 5773 5774 5774 5775 5776 5777 5779 5780 5782 5784 5785 5787 5788 5790 5791 5792
5724 5726 5728 5730 5731 5732 5734 5736 5739 5739 5740 5742 5744 5746 5748 5749 5751 5752 5753 5754 5755 5757 5758 5758 5759 5760 5761 5762 5762 5762 5763 5763 5764 5764 5765 5766 5766 5767 5769 5770 5772 5773 5775 5777 5778 5780 5781 5782 5783
5717 5718 5719 5721 5723 5724 5725 5727 5729 5730 5732 5734 5735 5737 5739 5740 5742 5744 5745 5746 5747 5748 5749 5749 5751 5752 5752 5753 5753 5753 5754 5754 5754 5755 5756 5757 5757 5758 5760 5761 5763 5764 5766 5768 5769 5771 5772 5773 5774
5708 5709 5710 5712 5713 5714 5715 5717 5719 5721 5723 5725 5726 5728 5730 5731 5733 5734 5736 5737 5738 5739 5740 5740 5741 5742 5743 5744 5744 5744 5745 5745 5745 5745 5746 5747 5748 5749 5750 5752 5753 5755 5756 5758 5760 5761 5762 5764 5765
5699 5700 5701 5702 5704 5705 5706 5708 5710 5712 5714 5715 5717 5718 5720 5722 5724 5725 5727 5728 5728 5729 5730 5731 5732 5732 5733 5734 5734 5734 5735 5735 5735 5735 5735 5736 5737 5739 5740 5742 5744 5745 5746 5748 5750 5751 5753 5754 5755
5692 5692 5692 5693 5694 5695 5696 5698 5701 5703 5704 5706 5708 5709 5710 5712 5714 5715 5717 5718 5719 5720 5721 5721 5722 5722 5723 5723 5724 5724 5724 5724 5724 5725 5725 5726 5727 5729 5730 5732 5733 5735 5736 5738 5740 5742 5743 5744 5746
5684 5684 5684 5685 5685 5686 5688 5688 5692 5693 5695 5697 5698 5699 5701 5702 5704 5705 5706 5707 5709 5710 5711 5711 5712 5712 5713 5713 5713 5713 5714 5714 5714 5715 5715 5716 5717 5718 5720 5722 5723 5725 5726 5728 5730 5732 5733 5735 5736
5676 5676 5676 5676 5676 5678 5679 5679 5683 5684 5686 5688 5689 5690 5691 5692 5694 5695 5696 5697 5698 5699 5700 5701 5701 5702 5702 5702 5703 5703 5703 5704 5704 5705 5706 5707 5707 5708 5710 5712 5713 5715 5716 5718 5720 5722 5723 5725 5726
5668 5668 5668 5668 5668 5670 5672 5672 5674 5676 5678 5679 5680 5681 5682 5683 5684 5685 5686 5687 5688 5689 5690 5691 5691 5691 5692 5692 5692 5693 5693 5694 5694 5695 5696 5697 5698 5699 5700 5702 5704 5705 5707 5709 5711 5712 5714 5715 5716
5661 5661 5661 5660 5660 5662 5664 5663 5666 5668 5669 5670 5671 5672 5672 5674 5675 5676 5677 5678 5678 5679 5680 5680 5680 5681 5681 5681 5681 5682 5683 5684 5684 5685 5686 5687 5688 5690 5691 5693 5694 5696 5698 5699 5701 5703 5704 5705 5706
5653 5654 5654 5654 5654 5655 5655 5656 5659 5660 5660 5661 5662 5663 5663 5665 5665 5666 5667 5668 5668 5669 5669 5669 5670 5670 5670 5670 5671 5672 5672 5673 5675 5676 5676 5677 5679 5680 5681 5683 5685 5686 5688 5690 5691 5692 5694 5695 5696
5645 5646 5647 5646 5645 5646 5647 5649 5651 5652 5652 5653 5654 5654 5655 5656 5656 5657 5657 5658 5658 5659 5659 5659 5659 5659 5659 5660 5660 5661 5662 5663 5664 5666 5667 5668 5669 5670 5672 5673 5675 5677 5679 5680 5681 5682 5683 5684 5685
5638 5638 5638 5638 5637 5638 5639 5641 5643 5644 5644 5644 5645 5645 5646 5647 5647 5648 5648 5648 5648 5649 5649 5649 5649 5649 5649 5650 5650 5651 5652 5653 5654 5655 5657 5658 5659 5661 5662 5664 5665 5667 5669 5670 5671 5672 5673 5674 5674
5630 5631 5630 5630 5630 5631 5630 5635 5635 5636 5636 5636 5636 5636 5637 5638 5638 5639 5639 5639 5639 5639 5639 5639 5639 5639 5639 5639 5640 5641 5641 5642 5644 5645 5646 5648 5649 5651 5652 5654 5655 5656 5658 5660 5660 5661 5662 5663 5663
5621 5622 5623 5623 5623 5623 5623 5628 5627 5627 5627 5627 5627 5628 5628 5629 5629 5629 5629 5629 5629 5629 5629 5629 5629 5629 5629 5629 5630 5630 5631 5632 5633 5635 5636 5638 5639 5641 5642 5643 5645 5646 5647 5648 5650 5651 5652 5652 5652